Waarnemingen

Advertentie
Mijn weer
St-Auban-Sur-Durance, Frankrijk (7588): temperatuur & dauwpunt: 22.06.2017 05:00:00 - 28.06.2017 05:00:00 (CEST)St-Auban-Sur-Durance, Frankrijk (7588): temperatuur 5cm: 22.06.2017 05:00:00 - 28.06.2017 05:00:00 (CEST)St-Auban-Sur-Durance, Frankrijk (7588): temperatuur -20cm: 22.06.2017 05:00:00 - 28.06.2017 05:00:00 (CEST)St-Auban-Sur-Durance, Frankrijk (7588): windsnelheid & windstoten: 22.06.2017 05:00:00 - 28.06.2017 05:00:00 (CEST)St-Auban-Sur-Durance, Frankrijk (7588): windrichting: 22.06.2017 05:00:00 - 28.06.2017 05:00:00 (CEST)St-Auban-Sur-Durance, Frankrijk (7588): luchtdruk: 22.06.2017 05:00:00 - 28.06.2017 05:00:00 (CEST)St-Auban-Sur-Durance, Frankrijk (7588): zicht: 22.06.2017 05:00:00 - 28.06.2017 05:00:00 (CEST)St-Auban-Sur-Durance, Frankrijk (7588): Zonneschijnduur: 22.06.2017 05:00:00 - 28.06.2017 05:00:00 (CEST)St-Auban-Sur-Durance, Frankrijk (7588): neerslag: 22.06.2017 05:00:00 - 28.06.2017 05:00:00 (CEST)
Datum & Tijd tt [°C] td [°C] tt 5cm [°C] tt -20cm [°C] ff [km/u] ff [kn] fx [km/u] fx [kn] dd ppp [hPa] vv [km] sd [min] rr [mm]
28.06.2017 05:00:00 16,9 14,9 16,6 28,2 8 5 10 6 NNO 1005,2 20 0 0,0
28.06.2017 04:00:00 17,4 14,9 16,9 28,4 9 5 23 12 NNW 1005,5 20 0 0,0
28.06.2017 03:00:00 18,0 15,8 17,8 28,6 6 3 16 9 ONO 1006,1 20 0 0,0
28.06.2017 02:00:00 19,8 17,2 19,1 28,8 4 2 20 11 Z 1006,1 19 0 0,6
28.06.2017 01:00:00 21,7 16,9 21,7 28,9 15 8 26 14 ZW 1006,3 20 0 0,0
28.06.2017 00:00:00 22,5 15,8 23,1 29,0 17 9 23 13 ZW 1005,9 20 0 0,0
27.06.2017 23:00:00 22,8 15,6 23,0 29,1 17 9 25 13 WZW 1006,1 20 0 0,0
27.06.2017 22:00:00 23,9 16,9 24,0 29,1 13 7 30 16 ZW 1005,6 20 0 0,0
27.06.2017 21:00:00 25,3 17,0 25,7 29,1 16 9 50 27 Z 1004,9 20 10 0,0
27.06.2017 20:00:00 27,0 15,7 28,5 29,0 24 13 49 27 Z 1003,9 20 0 0,0
27.06.2017 19:00:00 28,4 15,0 30,2 28,7 19 10 42 23 Z 1004,0 20 11 0,0
27.06.2017 18:00:00 29,5 14,1 31,4 28,4 19 10 40 22 Z 1004,5 20 23 0,0
27.06.2017 17:00:00 31,5 11,3 37,8 27,9 19 10 36 19 Z 1004,6 20 60 0,0
27.06.2017 16:00:00 31,3 11,1 38,3 27,5 22 12 35 19 ZZW 1005,2 20 60 0,0
27.06.2017 15:00:00 31,0 10,4 39,1 27,0 15 8 31 17 Z 1005,9 20 60 0,0
27.06.2017 14:00:00 29,9 8,3 37,4 26,7 18 10 31 17 ZZW 1006,7 20 60 0,0
27.06.2017 13:00:00 29,4 8,4 36,8 26,4 16 9 27 15 ZW 1007,1 20 60 0,0
27.06.2017 12:00:00 28,1 9,9 35,2 26,3 12 6 23 12 ZZW 1007,5 20 60 0,0
27.06.2017 11:00:00 26,7 13,4 33,4 26,3 11 6 20 11 ZW 1007,9 20 60 0,0
27.06.2017 10:00:00 25,8 14,9 29,1 26,4 4 2 14 8 ZW 1008,1 20 60 0,0
27.06.2017 09:00:00 22,9 15,5 26,1 26,5 8 4 13 7 O 1008,8 20 60 0,0
27.06.2017 08:00:00 20,8 15,3 18,8 26,7 3 1 6 3 O 1009,2 20 60 0,0
27.06.2017 07:00:00 17,6 15,2 16,8 26,9 4 2 9 5 NO 1009,6 20 3 0,0
27.06.2017 06:00:00 17,0 14,8 17,0 27,1 2 1 6 3 NNO 1009,6 20 0 0,0
27.06.2017 05:00:00 18,0 15,3 17,8 27,3 3 2 7 4 ZO 1009,5 20 0 0,0
27.06.2017 04:00:00 19,3 15,4 19,5 27,4 2 1 4 2 ZO 1009,6 20 0 0,0
27.06.2017 03:00:00 19,5 15,4 20,0 27,5 4 2 7 4 WZW 1009,8 20 0 0,0
27.06.2017 02:00:00 20,3 15,5 20,5 27,7 0 0 9 5 N 1009,9 20 0 0,0
27.06.2017 01:00:00 21,1 15,6 20,9 27,8 6 3 14 8 O 1010,0 20 0 0,0
27.06.2017 00:00:00 21,6 15,4 21,9 27,9 9 5 14 7 ZO 1010,2 20 0 0,0
26.06.2017 23:00:00 22,5 14,9 22,5 28,0 5 3 11 6 ZO 1010,5 20 0 0,0
26.06.2017 22:00:00 23,1 14,6 23,0 28,0 2 1 25 13 OZO 1010,4 20 0 0,0
26.06.2017 21:00:00 24,3 16,6 25,1 27,9 15 8 31 17 Z 1010,1 20 8 0,0
26.06.2017 20:00:00 27,9 12,3 29,6 27,8 5 3 11 6 N 1009,0 20 13 0,0
26.06.2017 19:00:00 28,4 11,0 31,6 27,7 6 3 17 9 N 1008,5 20 31 0,0
26.06.2017 18:00:00 28,0 11,5 32,2 27,5 13 7 19 10 N 1008,5 20 34 0,0
26.06.2017 17:00:00 28,1 11,6 32,3 27,4 8 4 17 9 NNO 1009,2 20 37 0,0
26.06.2017 16:00:00 27,1 9,9 28,3 27,3 9 5 19 10 NNO 1009,8 20 19 0,0
26.06.2017 15:00:00 25,1 14,2 22,1 27,1 7 4 23 13 NO 1011,4 20 3 0,2
26.06.2017 14:00:00 25,0 14,8 22,0 26,9 18 10 28 15 ZZW 1013,6 20 0 0,0
26.06.2017 13:00:00 27,7 10,8 31,4 26,6 21 11 32 18 ZW 1012,3 20 12 0,0
26.06.2017 12:00:00 29,0 12,8 34,6 26,6 13 7 25 13 ZZW 1011,7 20 60 0,0
26.06.2017 11:00:00 26,6 12,6 29,4 26,6 12 7 20 11 ZZW 1012,5 20 47 0,0
26.06.2017 10:00:00 23,8 11,8 25,3 26,7 2 1 11 6 OZO 1012,6 20 15 0,0
26.06.2017 09:00:00 22,3 12,0 24,6 26,9 7 4 18 10 NO 1012,7 20 29 0,0
26.06.2017 08:00:00 20,4 10,5 19,2 27,1 6 3 19 10 OZO 1013,0 20 47 0,0
26.06.2017 07:00:00 18,8 10,9 18,3 27,3 4 2 22 12 O 1013,1 20 0 0,0
26.06.2017 06:00:00 18,0 10,6 18,1 27,6 4 2 11 6 O 1012,9 20 0 0,0
26.06.2017 05:00:00 19,5 11,5 19,7 27,8 8 4 24 13 ONO 1012,5 20 0 0,0
26.06.2017 04:00:00 20,2 11,1 20,3 28,0 15 8 29 16 NNO 1012,5 20 0 0,0
26.06.2017 03:00:00 21,1 11,1 20,2 28,2 8 5 27 15 NO 1012,3 20 0 0,0
26.06.2017 02:00:00 22,1 11,2 19,5 28,4 20 11 29 16 N 1012,4 20 0 0,0
26.06.2017 01:00:00 21,6 11,0 20,6 28,7 11 6 24 13 NNW 1013,2 20 0 0,0
26.06.2017 00:00:00 24,3 10,6 23,4 28,8 16 8 29 16 N 1012,1 20 0 0,0
25.06.2017 23:00:00 24,5 11,1 23,8 28,9 11 6 27 15 NNO 1011,8 20 0 0,0
25.06.2017 22:00:00 25,7 10,7 25,4 28,9 18 10 29 16 N 1011,4 20 0 0,0
25.06.2017 21:00:00 27,5 9,8 27,5 28,9 22 12 35 19 N 1010,1 20 28 0,0
25.06.2017 20:00:00 30,3 9,2 34,4 28,7 20 11 31 17 N 1009,2 20 60 0,0
25.06.2017 19:00:00 31,4 5,7 37,2 28,4 18 10 32 17 NNW 1008,9 20 60 0,0
25.06.2017 18:00:00 31,8 4,5 38,6 28,1 18 10 37 20 NNW 1009,2 20 60 0,0
25.06.2017 17:00:00 31,7 3,6 38,6 27,7 22 12 42 23 N 1009,7 20 60 0,0
25.06.2017 16:00:00 31,9 6,1 39,2 27,3 22 12 40 21 N 1010,0 20 60 0,0
25.06.2017 15:00:00 31,5 9,7 36,9 26,8 20 11 40 21 N 1010,3 20 60 0,0
25.06.2017 14:00:00 30,5 11,5 37,6 26,5 18 10 37 20 NNO 1011,0 20 60 0,0
25.06.2017 13:00:00 29,3 13,5 36,6 26,3 16 9 33 18 N 1011,6 20 60 0,0
25.06.2017 12:00:00 27,7 14,7 34,5 26,2 17 9 29 16 N 1012,2 20 60 0,0
25.06.2017 11:00:00 26,4 14,8 29,2 26,3 16 9 34 19 NNO 1012,5 20 60 0,0
25.06.2017 10:00:00 23,9 14,9 25,1 26,4 13 7 32 17 NNO 1013,2 20 21 0,0
25.06.2017 09:00:00 22,5 15,3 21,7 26,5 15 8 23 13 NNO 1013,2 20 32 0,0
25.06.2017 08:00:00 19,8 17,2 20,5 26,7 9 5 17 9 W 1014,2 20 6 0,0
25.06.2017 07:00:00 19,1 16,9 19,0 26,9 8 4 14 7 W 1014,9 20 2 0,0
25.06.2017 06:00:00 18,9 16,5 18,9 27,1 7 4 12 7 NW 1014,8 20 0 0,0
25.06.2017 05:00:00 20,6 17,2 19,4 27,3 5 3 17 9 O 1013,7 20 0 0,0
25.06.2017 04:00:00 19,8 17,0 19,9 27,5 0 0 8 5 N 1014,7 20 0 0,0
25.06.2017 03:00:00 19,7 16,7 19,7 27,7 5 3 11 6 NNO 1015,0 20 0 0,0
25.06.2017 02:00:00 20,3 16,7 20,3 27,9 3 2 18 10 NNW 1015,5 20 0 0,0
25.06.2017 01:00:00 21,3 16,7 21,4 28,0 11 6 20 11 WZW 1015,2 20 0 0,0
25.06.2017 00:00:00 22,3 16,8 22,4 28,2 13 7 22 12 WZW 1015,2 20 0 0,0
24.06.2017 23:00:00 23,9 16,9 23,7 28,3 10 5 21 11 WZW 1014,9 20 0 0,0
24.06.2017 22:00:00 25,7 17,1 25,8 28,3 11 6 20 11 WZW 1014,0 20 0 0,0
24.06.2017 21:00:00 27,9 17,7 28,1 28,3 15 8 39 21 ZZW 1013,0 20 0 0,0
24.06.2017 20:00:00 30,5 17,2 31,4 28,3 26 14 40 22 ZW 1011,8 20 43 0,0
24.06.2017 19:00:00 32,8 14,4 36,9 28,1 26 14 38 20 ZZW 1011,4 20 60 0,0
24.06.2017 18:00:00 31,0 17,0 36,8 28,0 8 5 18 10 O 1011,5 20 60 0,0
24.06.2017 17:00:00 29,7 19,1 27,5 27,8 5 3 25 13 NO 1012,3 20 24 0,2
24.06.2017 16:00:00 28,1 19,3 29,0 27,5 13 7 29 15 N 1012,9 19 0 0,0
24.06.2017 15:00:00 33,2 14,8 35,1 27,2 14 8 28 15 ZZW 1012,2 20 37 0,0
24.06.2017 14:00:00 34,1 15,5 41,3 26,8 10 5 22 12 ZZW 1012,5 20 57 0,0
24.06.2017 13:00:00 32,9 14,0 39,3 26,6 8 4 15 8 ZZO 1013,5 20 60 0,0
24.06.2017 12:00:00 30,8 15,2 35,8 26,5 8 4 19 10 NO 1014,3 20 52 0,0
24.06.2017 11:00:00 29,5 15,6 34,1 26,5 11 6 23 13 NO 1014,9 20 60 0,0
24.06.2017 10:00:00 27,2 15,9 30,3 26,6 9 5 31 17 NO 1015,8 20 60 0,0
24.06.2017 09:00:00 25,2 15,5 25,7 26,8 12 6 25 13 NNO 1016,3 20 60 0,0
24.06.2017 08:00:00 22,9 16,4 20,8 27,0 6 3 24 13 O 1016,6 20 55 0,0
24.06.2017 07:00:00 20,4 15,8 19,3 27,3 4 2 14 7 ONO 1016,9 20 27 0,0
24.06.2017 06:00:00 19,5 16,0 18,7 27,5 5 3 12 7 O 1017,1 20 0 0,2
24.06.2017 05:00:00 18,4 16,9 18,4 27,7 5 3 9 5 NO 1017,4 19 0 0,0
24.06.2017 04:00:00 18,7 17,5 18,5 28,0 5 3 8 4 N 1017,7 13 0 0,0
24.06.2017 03:00:00 19,3 18,1 19,1 28,2 4 2 11 6 N 1017,7 12 0 0,0
24.06.2017 02:00:00 19,8 18,5 19,8 28,4 4 2 10 6 NO 1017,9 15 0 0,0
24.06.2017 01:00:00 19,9 18,4 19,8 28,7 2 1 7 4 N 1017,8 14 0 0,0
24.06.2017 00:00:00 20,4 18,3 20,2 28,9 2 1 8 5 ONO 1018,1 17 0 0,0
23.06.2017 23:00:00 20,7 18,5 20,7 29,0 4 2 12 7 N 1017,7 17 0 0,0
23.06.2017 22:00:00 22,2 18,4 21,9 29,1 5 3 11 6 ONO 1017,1 20 0 0,0
23.06.2017 21:00:00 22,7 20,6 23,6 29,2 3 2 10 6 NNO 1016,1 18 12 0,0
23.06.2017 20:00:00 23,4 19,8 22,1 29,2 2 1 15 8 OZO 1016,0 20 0 0,0
23.06.2017 19:00:00 23,1 18,0 21,2 29,1 11 6 36 19 NNW 1015,8 19 0 1,8
23.06.2017 18:00:00 27,1 21,8 24,8 28,9 13 7 31 17 NW 1015,0 8 6 2,6
23.06.2017 17:00:00 33,6 15,6 35,6 28,5 23 13 40 22 ZZW 1013,4 20 12 0,0
23.06.2017 16:00:00 35,3 15,1 37,2 28,1 9 5 26 14 Z 1013,6 20 45 0,0
23.06.2017 15:00:00 34,2 17,0 41,3 27,7 15 8 24 13 ZZW 1014,2 20 60 0,0
23.06.2017 14:00:00 32,8 18,6 37,0 27,5 16 9 26 14 ZZW 1015,0 20 41 0,0
23.06.2017 13:00:00 31,6 16,7 36,5 27,3 16 9 23 12 ZZW 1015,7 20 46 0,0
23.06.2017 12:00:00 30,4 17,5 35,6 27,1 6 3 19 10 ZW 1016,3 20 53 0,0
23.06.2017 11:00:00 28,8 16,4 34,2 27,1 11 6 21 12 NNW 1016,8 20 60 0,0
23.06.2017 10:00:00 26,4 18,0 30,8 27,2 12 6 24 13 NO 1017,5 20 60 0,0
23.06.2017 09:00:00 24,4 17,9 25,5 27,4 8 4 15 8 NNO 1017,9 20 40 0,0
23.06.2017 08:00:00 22,3 18,3 20,9 27,6 4 2 9 5 OZO 1018,0 18 38 0,0
23.06.2017 07:00:00 19,5 17,8 18,2 27,7 5 3 11 6 OZO 1018,3 15 31 0,0
23.06.2017 06:00:00 18,3 17,1 17,6 28,0 4 2 8 4 O 1018,4 11 0 0,0
23.06.2017 05:00:00 18,5 17,2 17,9 28,2 0 0 5 3 N 1018,3 14 0 0,0
23.06.2017 04:00:00 18,6 17,1 18,3 28,4 2 1 4 2 O 1018,3 17 0 0,0
23.06.2017 03:00:00 19,1 17,4 19,2 28,5 0 0 4 2 N 1018,4 18 0 0,0
23.06.2017 02:00:00 19,9 17,5 19,6 28,7 0 0 9 5 N 1018,6 20 0 0,0
23.06.2017 01:00:00 21,0 18,0 20,9 28,9 7 4 9 5 WZW 1018,7 20 0 0,0
23.06.2017 00:00:00 22,2 18,4 22,3 28,9 3 2 16 8 W 1018,5 20 0 0,0
22.06.2017 23:00:00 23,4 18,5 23,6 29,0 11 6 18 10 WZW 1017,7 20 0 0,0
22.06.2017 22:00:00 24,6 18,3 24,5 29,1 7 4 21 12 ZZO 1016,9 20 0 0,0
22.06.2017 21:00:00 26,6 18,5 27,2 29,0 19 10 30 16 ZZW 1016,3 20 41 0,0
22.06.2017 20:00:00 28,8 18,9 30,8 29,0 21 11 33 18 ZZW 1015,5 20 27 0,0
22.06.2017 19:00:00 30,5 16,9 33,2 28,9 16 9 27 14 ZZW 1014,8 20 43 0,0
22.06.2017 18:00:00 30,0 16,4 31,4 28,7 9 5 17 9 ZZW 1015,0 20 14 0,0
22.06.2017 17:00:00 29,7 15,4 31,2 28,5 14 8 27 14 W 1015,4 20 0 0,0
22.06.2017 16:00:00 30,0 16,1 31,6 28,1 11 6 23 12 ZZW 1015,4 20 0 0,0
22.06.2017 15:00:00 31,2 15,2 34,5 27,7 11 6 22 12 ZZO 1014,9 20 37 0,0
22.06.2017 14:00:00 31,6 13,4 39,6 27,3 14 7 22 12 ZZW 1015,5 20 60 0,0
22.06.2017 13:00:00 30,4 12,3 37,4 27,1 8 4 16 8 ZZO 1016,1 20 60 0,0
22.06.2017 12:00:00 28,6 12,5 35,2 27,0 4 2 13 7 ONO 1016,7 20 60 0,0
22.06.2017 11:00:00 26,0 12,4 32,1 27,0 6 3 18 10 N 1017,6 20 60 0,0
22.06.2017 10:00:00 23,6 13,5 27,8 27,2 12 6 24 13 NNO 1018,2 20 60 0,0
22.06.2017 09:00:00 21,4 13,3 24,2 27,3 12 7 23 12 NNO 1018,7 20 60 0,0
22.06.2017 08:00:00 19,2 13,8 18,8 27,5 7 4 14 8 ONO 1018,9 20 60 0,0
22.06.2017 07:00:00 17,8 13,7 17,0 27,8 4 2 11 6 O 1019,1 20 25 0,0
22.06.2017 06:00:00 16,9 13,8 16,2 28,0 5 3 13 7 O 1018,7 20 0 0,0
22.06.2017 05:00:00 17,5 13,6 17,3 28,3 4 2 14 8 O 1018,3 20 0 0,0

tt = temperatuur
td = dauwpunt
tt 5cm = temperatuur 5cm
tt -20cm = temperatuur -20cm
ff = windsnelheid
fx = windstoten
dd = windrichting
ppp = luchtdruk
vv = zicht
sd = Zonneschijnduur
rr = neerslag

Weerstations in de omgeving